[[{"header":{"parameterUnit":"m.s-1","parameterCategory":2,"la1":30.2991,"la2":30.254,"lo1":-89.0895,"lo2":-89.0444,"dy":0.0017,"dx":0.0017,"nx":28,"ny":28,"refTime":"2025-01-27T03:00:00:Z","depth":"0","parameterNumber":2,"parameterNumberName":"U-component_of_CURRENTS"},"data":[0,0,0,0,0,0,0,0,0,0,0,0,0,0,0,0,0,0,0,0,0,0,0,0,0,0,0,0,0,0,0,0,0,0,0,0,0,0,0,0,0,0,0,0,0,0,0,0,0,0,0,0,0,0,0,0,0,0,0.3406,0.3406,0,0.3432,0.3432,0.3432,0.3405,0.3404,0.3403,0.3403,0.343,0.3431,0.3433,0,0,0,0,0,0,0,0,0,0,0,0,0,0.3369,0.3369,0.3406,0.3406,0.3407,0.3432,0.3432,0.3432,0.3405,0.3404,0.3403,0.3402,0.3429,0.3431,0.3433,0,0,0,0,0,0,0,0,0,0,0,0,0,0.3386,0.337,0.3406,0.3399,0.3399,0.3432,0.3432,0.3432,0.3405,0.3404,0.3403,0.3402,0.3429,0.3431,0.3433,0.3469,0,0,0.344,0.3441,0,0,0,0,0,0,0,0,0.3385,0.3387,0.3399,0.3399,0.3399,0.3417,0.3429,0.3446,0.3405,0.3399,0.3403,0.3401,0.3429,0.3431,0.3433,0.347,0.3471,0.344,0.3441,0.3442,0.3443,0,0,0,0,0,0,0,0.3384,0.3386,0.3413,0.34,0.34,0.3408,0.3408,0.3432,0.3417,0.34,0.3399,0.3407,0.3428,0.3431,0.3434,0.3472,0.344,0.3442,0.3443,0.3444,0.3583,0.3585,0,0,0,0,0,0,0.3387,0.3385,0.3412,0.3414,0.3393,0.3409,0.341,0.341,0.3417,0.3418,0.3408,0.3406,0.3428,0.3431,0.3435,0.3526,0.3442,0.3444,0.3445,0.3581,0.3584,0.3586,0,0,0,0,0,0,0.3386,0.3389,0.3411,0.3403,0.3407,0.3411,0.3412,0.3411,0.3418,0.3424,0.3424,0.3416,0.3428,0.3432,0.3468,0.3525,0.3445,0.3447,0.3578,0.3581,0.3585,0.3677,0,0,0,0,0,0,0.3384,0.3388,0.3394,0.3403,0.3407,0.3456,0.3413,0.3412,0.3426,0.3423,0.3432,0.3432,0.3427,0.3465,0.347,0.3526,0.3449,0.3575,0.3579,0.3584,0.3671,0.3684,0.3694,0,0,0,0,0,0.3383,0.3399,0.3394,0.3398,0.3413,0.3459,0.3463,0.3459,0.3428,0.3454,0.3447,0.3432,0.3497,0.3468,0.3474,0.3532,0.3572,0.3578,0.3583,0.3666,0.3681,0.3694,0,0,0,0,0,0,0.3384,0.3398,0.3393,0.341,0.3444,0.3456,0.3476,0.3467,0.3481,0.347,0.3457,0.346,0.3526,0.3511,0.3479,0.3586,0.3536,0.3543,0.3597,0.3611,0.3623,0.3645,0.345,0,0,0,0,0,0.3389,0.3403,0.3427,0.3444,0.3461,0.3468,0.3483,0.3484,0.3496,0.3498,0.35,0.351,0.3554,0.3564,0.3598,0.3643,0.3678,0.3687,0.3698,0.3708,0.3731,0.3842,0.3867,0.3604,0.3604,0.3604,0,0,0.3392,0.3404,0.341,0.3446,0.3463,0.3509,0.3474,0.3508,0.3545,0.3502,0.3544,0.356,0.3579,0.3644,0.367,0.3633,0.3801,0.3715,0.3723,0.3741,0.3851,0.3876,0.3899,0.3608,0.3607,0.3606,0,0,0.3423,0.342,0.3452,0.3485,0.3526,0.354,0.3554,0.3576,0.3588,0.3636,0.3625,0.3669,0.3708,0.3741,0.3762,0.3856,0.3871,0.3864,0.3928,0.4036,0.4059,0.4079,0.4155,0.4182,0.3854,0.3855,0.3855,0,0.3431,0.3464,0.3474,0.3522,0.3553,0.3558,0.3611,0.3637,0.3666,0.3696,0.3665,0.3765,0.3766,0.3869,0.3893,0.3887,0.3938,0.3871,0.4053,0.4074,0.4094,0.4166,0.4195,0.386,0.3859,0.3859,0.3858,0,0.3492,0.3522,0.3547,0.3605,0.3648,0.3692,0.3735,0.3773,0.3779,0.3808,0.3906,0.3916,0.3976,0.3986,0.3964,0.4105,0.4094,0.4068,0.4019,0.4126,0.4195,0.4223,0.3867,0.3865,0.3864,0.3862,0,0,0.3504,0.3574,0.3584,0.3615,0.369,0.3726,0.381,0.3893,0.3948,0.3991,0.4083,0.4145,0.4149,0.4173,0.4163,0.4233,0.4396,0.4204,0.4207,0.4282,0.4632,0.451,0.4528,0.4409,0.4414,0.4419,0.4624,0,0.3551,0.363,0.3667,0.375,0.3792,0.3839,0.3916,0.3991,0.4049,0.414,0.4192,0.4275,0.4223,0.4254,0.4329,0.4388,0.4475,0.4342,0.4515,0.452,0.4402,0.4559,0.4267,0.4416,0.4651,0.4655,0.4659,0,0.36,0.3645,0.3723,0.3806,0.3833,0.3887,0.4004,0.4078,0.4216,0.4268,0.4372,0.4414,0.4537,0.4467,0.4657,0.4579,0.4625,0.4656,0.4665,0.4541,0.4451,0.4348,0.4458,0.4316,0.4701,0.4698,0.4695,0,0.3583,0.3682,0.3734,0.3764,0.3869,0.3917,0.3981,0.411,0.421,0.4356,0.446,0.4585,0.4682,0.4772,0.4833,0.477,0.5038,0.4956,0.4899,0.489,0.467,0.4631,0.4662,0.512,0.512,0.5119,0.5119,0,0.3605,0.3648,0.372,0.3747,0.3836,0.3905,0.403,0.4109,0.4279,0.4428,0.452,0.4672,0.4772,0.492,0.4935,0.5019,0.5135,0.496,0.4958,0.469,0.4653,0.4537,0.4478,0.5127,0.5125,0.5124,0.5122,0,0.3583,0.3625,0.3694,0.3791,0.3825,0.3887,0.4065,0.4169,0.4314,0.4521,0.4587,0.4807,0.4967,0.5051,0.5209,0.5156,0.5067,0.5224,0.4884,0.4836,0.4568,0.4523,0.4469,0.4346,0.5184,0.5182,0.5181,0,0.358,0.3604,0.3711,0.3765,0.3809,0.3918,0.4013,0.4169,0.4294,0.4603,0.4709,0.4937,0.5056,0.5235,0.5165,0.5181,0.5054,0.4942,0.4751,0.4559,0.4512,0.4373,0.4263,0.4505,0.4498,0.4493,0.4489,0,0.3589,0.3618,0.3687,0.3792,0.388,0.398,0.4111,0.4213,0.4421,0.4577,0.4795,0.491,0.5051,0.4925,0.4939,0.4906,0.465,0.4828,0.4735,0.4086,0.3836,0.371,0.4359,0.444,0.4445,0.4448,0.4451,0.4453,0.3615,0.3663,0.3754,0.3836,0.3928,0.3998,0.4035,0.4179,0.4328,0.4467,0.4695,0.4711,0.4684,0.462,0.4589,0.4277,0.4336,0.4071,0.4072,0.398,0.3731,0.4264,0.4266,0.4269,0.4273,0.4275,0.4278,0,0.3655,0.3706,0.3794,0.3869,0.3898,0.3959,0.4071,0.4062,0.4124,0.4242,0.4329,0.4192,0.4049,0.3986,0.3719,0.3535,0.3385,0.3429,0.3159,0.312,0.3681,0.3514,0.3223,0.3223,0.3223,0.3223,0.3223,0.3223,0.3702,0.3763,0.378,0.38,0.3823,0.3798,0.3806,0.3797,0.3819,0.3691,0.3536,0.3525,0.3514,0.3366,0.3093,0.3003,0.2799,0.2621,0.2733,0.3094,0.3152,0.3208,0.3038,0.2652,0.2651,0.1973,0.1968,0.1964]},{"header":{"parameterUnit":"m.s-1","parameterCategory":2,"la1":30.2991,"la2":30.254,"lo1":-89.0895,"lo2":-89.0444,"dy":0.0017,"dx":0.0017,"nx":28,"ny":28,"refTime":"2025-01-27T03:00:00:Z","depth":"0","parameterNumber":3,"parameterNumberName":"V-component_of_CURRENTS"},"data":[0,0,0,0,0,0,0,0,0,0,0,0,0,0,0,0,0,0,0,0,0,0,0,0,0,0,0,0,0,0,0,0,0,0,0,0,0,0,0,0,0,0,0,0,0,0,0,0,0,0,0,0,0,0,0,0,0,0,0.024,0.0239,0,0.0217,0.0217,0.0217,0.0191,0.0191,0.019,0.019,0.0154,0.0153,0.0153,0,0,0,0,0,0,0,0,0,0,0,0,0,0.0224,0.0225,0.024,0.0239,0.0239,0.0217,0.0217,0.0217,0.0191,0.0191,0.019,0.019,0.0154,0.0153,0.0153,0,0,0,0,0,0,0,0,0,0,0,0,0,0.0219,0.0225,0.024,0.0224,0.0222,0.0217,0.0217,0.0217,0.0191,0.0191,0.019,0.019,0.0154,0.0153,0.0152,0.0158,0,0,0.015,0.0149,0,0,0,0,0,0,0,0,0.022,0.022,0.0226,0.0225,0.0223,0.0206,0.0198,0.0196,0.0192,0.0203,0.019,0.0189,0.0171,0.0168,0.0166,0.0157,0.0155,0.015,0.0149,0.0149,0.0148,0,0,0,0,0,0,0,0.022,0.022,0.0231,0.0226,0.0224,0.0205,0.0204,0.0198,0.019,0.0202,0.02,0.0198,0.0169,0.0167,0.0164,0.0155,0.015,0.0149,0.0148,0.0148,0.015,0.0151,0,0,0,0,0,0,0.0225,0.0221,0.0231,0.023,0.022,0.0206,0.0205,0.0212,0.019,0.0187,0.0198,0.0197,0.0168,0.0166,0.0163,0.0192,0.0149,0.0148,0.0147,0.015,0.015,0.0151,0,0,0,0,0,0,0.0225,0.0227,0.0232,0.0224,0.0224,0.0207,0.0215,0.0212,0.0207,0.0188,0.0183,0.0196,0.0168,0.0164,0.0163,0.0189,0.0147,0.0147,0.0149,0.015,0.0151,0.0234,0,0,0,0,0,0,0.0225,0.0227,0.0233,0.0225,0.0224,0.0242,0.0216,0.0212,0.0207,0.0204,0.0185,0.0181,0.0167,0.0165,0.0162,0.0187,0.0146,0.0148,0.0149,0.0151,0.0231,0.0238,0.0244,0,0,0,0,0,0.0225,0.0243,0.0234,0.0235,0.0234,0.0243,0.0242,0.0227,0.0207,0.0217,0.0199,0.0181,0.017,0.0165,0.0162,0.0187,0.0148,0.0149,0.015,0.0228,0.0237,0.0244,0,0,0,0,0,0,0.024,0.0242,0.0231,0.0249,0.0249,0.0239,0.0245,0.0229,0.0222,0.0217,0.0191,0.0187,0.0195,0.0175,0.017,0.0189,0.0155,0.0156,0.0215,0.0223,0.023,0.0254,0.0145,0,0,0,0,0,0.0246,0.0259,0.0255,0.0268,0.0271,0.0255,0.0254,0.0247,0.0239,0.0234,0.0218,0.0202,0.02,0.0198,0.019,0.0201,0.0195,0.0213,0.022,0.0226,0.0243,0.0254,0.0264,0.0156,0.0156,0.0156,0,0,0.0254,0.0256,0.0263,0.0272,0.0268,0.0291,0.0254,0.0262,0.0285,0.0232,0.0251,0.0224,0.0206,0.0222,0.0224,0.0209,0.0253,0.0228,0.0233,0.0247,0.0257,0.0267,0.0277,0.0157,0.0156,0.0156,0,0,0.029,0.0282,0.0311,0.0317,0.032,0.0314,0.0318,0.0312,0.0314,0.0326,0.0295,0.0286,0.0276,0.0275,0.0272,0.0309,0.0286,0.0297,0.0356,0.0367,0.0377,0.0385,0.0393,0.0402,0.0303,0.0303,0.0303,0,0.0299,0.0338,0.032,0.0352,0.0368,0.033,0.0371,0.037,0.0363,0.0379,0.0345,0.034,0.0311,0.0346,0.0348,0.0328,0.0325,0.033,0.0379,0.0386,0.0394,0.04,0.0408,0.0307,0.0306,0.0306,0.0306,0,0.0366,0.0392,0.0411,0.0441,0.0454,0.0481,0.048,0.049,0.0475,0.0474,0.0495,0.0454,0.0454,0.0436,0.0401,0.0438,0.0416,0.0386,0.0364,0.041,0.0413,0.042,0.0313,0.0311,0.031,0.0309,0,0,0.0402,0.045,0.0456,0.0493,0.0506,0.0531,0.0567,0.0602,0.0641,0.0614,0.0669,0.0631,0.0595,0.0588,0.0541,0.0536,0.0566,0.048,0.0479,0.05,0.0591,0.0548,0.0551,0.0543,0.0544,0.0545,0.0574,0,0.0462,0.0548,0.0552,0.063,0.0677,0.0665,0.071,0.0731,0.0734,0.0772,0.0734,0.0759,0.066,0.0663,0.0641,0.059,0.0588,0.0561,0.0534,0.0533,0.0499,0.056,0.0539,0.0561,0.0581,0.0582,0.0583,0,0.0532,0.0584,0.0675,0.0748,0.0768,0.0802,0.0872,0.091,0.0941,0.0948,0.0948,0.0913,0.0905,0.0813,0.0761,0.0747,0.0677,0.0628,0.0627,0.0566,0.0504,0.0516,0.0573,0.0413,0.0594,0.0593,0.0592,0,0.0586,0.0671,0.075,0.0774,0.0844,0.0886,0.0922,0.0964,0.1027,0.1064,0.1114,0.1074,0.1093,0.0992,0.0869,0.0822,0.0817,0.0742,0.0645,0.0641,0.0609,0.0599,0.0519,0.072,0.072,0.0719,0.0719,0,0.0657,0.072,0.0782,0.0828,0.0934,0.0956,0.1065,0.1093,0.1164,0.1274,0.1209,0.1296,0.1139,0.1108,0.0951,0.0835,0.0884,0.0678,0.0655,0.0635,0.0628,0.0473,0.0371,0.0721,0.072,0.072,0.072,0,0.0708,0.0745,0.0844,0.093,0.0963,0.1041,0.116,0.1246,0.1296,0.144,0.1468,0.1489,0.1458,0.129,0.1163,0.0975,0.0747,0.0789,0.0773,0.0746,0.046,0.0364,0.0267,0.0201,0.0678,0.0677,0.0676,0,0.0745,0.0799,0.0916,0.0985,0.1026,0.114,0.1229,0.1304,0.1407,0.158,0.1669,0.1696,0.1756,0.1541,0.1225,0.0968,0.0787,0.0744,0.0634,0.0464,0.0341,0.0273,0.022,0.0628,0.0627,0.0626,0.0625,0,0.0814,0.0847,0.0931,0.1069,0.117,0.1303,0.1434,0.1535,0.1664,0.1818,0.2023,0.2097,0.1905,0.1652,0.1263,0.1058,0.0611,0.0717,0.0557,0.0314,0.0223,0.0143,0.0583,0.0618,0.0619,0.0619,0.062,0.062,0.086,0.093,0.1033,0.1164,0.1291,0.1452,0.1571,0.1749,0.1962,0.2226,0.2281,0.2444,0.2002,0.1488,0.1191,0.0574,0.0588,0.0366,0.0273,0.0229,0.0132,0.0552,0.0541,0.0541,0.0542,0.0542,0.0542,0,0.0921,0.1,0.1123,0.1285,0.1428,0.1483,0.1703,0.1857,0.2139,0.242,0.2631,0.2472,0.1972,0.1408,0.0561,0.0182,0.0055,-0.0016,-0.0119,-0.0146,0.0249,0.021,0.0109,0.0109,0.0109,0.011,0.011,0.011,0.0959,0.1073,0.1133,0.1361,0.1481,0.1684,0.1812,0.2078,0.2309,0.2644,0.274,0.2771,0.2227,0.0855,-0.0027,-0.0204,-0.045,-0.0514,-0.0607,-0.0363,-0.0334,-0.0307,-0.0366,-0.0586,-0.0587,-0.0956,-0.096,-0.0963]}],[{"header":{"parameterUnit":"m.s-1","parameterCategory":2,"la1":30.2991,"la2":30.254,"lo1":-89.0895,"lo2":-89.0444,"dy":0.0017,"dx":0.0017,"nx":28,"ny":28,"refTime":"2025-01-27T03:00:00:Z","depth":"2","parameterNumber":2,"parameterNumberName":"U-component_of_CURRENTS"},"data":[0,0,0,0,0,0,0,0,0,0,0,0,0,0,0,0,0,0,0,0,0,0,0,0,0,0,0,0,0,0,0,0,0,0,0,0,0,0,0,0,0,0,0,0,0,0,0,0,0,0,0,0,0,0,0,0,0,0,0.2782,0.2782,0,0.2801,0.28,0.28,0.2792,0.2791,0.2791,0.2791,0.28,0.28,0.2801,0,0,0,0,0,0,0,0,0,0,0,0,0,0.2752,0.2753,0.2782,0.2782,0.2783,0.2801,0.28,0.28,0.2792,0.2791,0.2791,0.2791,0.28,0.28,0.2801,0,0,0,0,0,0,0,0,0,0,0,0,0,0.2765,0.2753,0.2782,0.2783,0.2783,0.2801,0.28,0.28,0.2792,0.2791,0.2791,0.2791,0.28,0.28,0.2801,0.2811,0,0,0.2803,0.2803,0,0,0,0,0,0,0,0,0.2764,0.2765,0.2782,0.2783,0.2783,0.2796,0.2794,0.2804,0.2792,0.2785,0.2791,0.2791,0.28,0.28,0.2801,0.2811,0.2812,0.2803,0.2803,0.2804,0.2804,0,0,0,0,0,0,0,0.2763,0.2765,0.2786,0.2783,0.2784,0.2787,0.2788,0.2795,0.2792,0.2786,0.2786,0.2793,0.28,0.28,0.2801,0.2812,0.2803,0.2803,0.2804,0.2804,0.2894,0.2896,0,0,0,0,0,0,0.2767,0.2764,0.2786,0.2787,0.2776,0.2788,0.2789,0.279,0.2792,0.2793,0.2793,0.2792,0.2799,0.28,0.2801,0.2865,0.2804,0.2804,0.2804,0.2892,0.2894,0.2896,0,0,0,0,0,0,0.2766,0.2768,0.2785,0.2779,0.2781,0.2789,0.279,0.279,0.2801,0.2798,0.2798,0.2805,0.2799,0.28,0.2826,0.2863,0.2804,0.2805,0.2889,0.2892,0.2895,0.296,0,0,0,0,0,0,0.2765,0.2767,0.2774,0.2779,0.2782,0.2815,0.2791,0.2791,0.2806,0.2806,0.2808,0.2808,0.2799,0.2825,0.2827,0.2863,0.2805,0.2887,0.2891,0.2894,0.2956,0.2965,0.2973,0,0,0,0,0,0.2763,0.2772,0.2774,0.2778,0.2789,0.2816,0.2819,0.2821,0.2807,0.2826,0.2825,0.2808,0.285,0.2827,0.2829,0.2866,0.2885,0.289,0.2894,0.2952,0.2963,0.2973,0,0,0,0,0,0,0.2761,0.2773,0.2775,0.2786,0.2811,0.2816,0.2831,0.283,0.2842,0.284,0.2827,0.2828,0.2872,0.286,0.2835,0.2905,0.2868,0.2873,0.2911,0.2922,0.2931,0.2939,0.2806,0,0,0,0,0,0.2766,0.2775,0.2794,0.2806,0.2819,0.2827,0.2838,0.2844,0.2853,0.2858,0.2857,0.2865,0.289,0.2897,0.2915,0.2944,0.296,0.2972,0.2981,0.2989,0.2998,0.3052,0.3066,0.2911,0.2911,0.2911,0,0,0.2767,0.2777,0.2782,0.2807,0.2821,0.2846,0.2833,0.286,0.2883,0.2858,0.2886,0.2899,0.2908,0.2949,0.2967,0.2942,0.3046,0.2994,0.3,0.3006,0.3058,0.3073,0.3087,0.2914,0.2913,0.2913,0,0,0.2779,0.2788,0.2803,0.2827,0.2859,0.2869,0.2881,0.29,0.2914,0.2948,0.2943,0.2978,0.2998,0.3018,0.3029,0.3096,0.3097,0.3105,0.3149,0.3201,0.3214,0.3226,0.3284,0.33,0.3102,0.3102,0.3102,0,0.2785,0.2798,0.2815,0.2841,0.2862,0.288,0.2908,0.293,0.2956,0.2978,0.2969,0.3033,0.3035,0.3096,0.312,0.3117,0.3148,0.3104,0.3212,0.3224,0.3235,0.3292,0.3309,0.3106,0.3106,0.3105,0.3105,0,0.2805,0.2824,0.2839,0.2872,0.2904,0.2931,0.2968,0.3001,0.3018,0.3038,0.3109,0.3125,0.3164,0.3176,0.3167,0.325,0.3251,0.3223,0.3183,0.3254,0.331,0.3327,0.3111,0.311,0.3109,0.3108,0,0,0.2795,0.2841,0.2847,0.2864,0.2921,0.2942,0.3002,0.3056,0.3093,0.3137,0.3195,0.3247,0.3263,0.3278,0.3284,0.3324,0.3428,0.3308,0.3309,0.3362,0.3562,0.3458,0.3466,0.3421,0.3423,0.3426,0.3576,0,0.2806,0.2842,0.2873,0.2915,0.2937,0.2986,0.3034,0.3091,0.3143,0.3205,0.3256,0.3312,0.3301,0.333,0.3377,0.3419,0.3473,0.3391,0.3488,0.3491,0.3386,0.3481,0.3171,0.3269,0.3592,0.3595,0.3597,0,0.2811,0.2835,0.2873,0.2927,0.2943,0.2977,0.3061,0.3114,0.3215,0.3262,0.3344,0.338,0.3473,0.3438,0.3569,0.3521,0.3555,0.3577,0.3583,0.3472,0.3417,0.3247,0.3287,0.3625,0.3622,0.362,0.3618,0,0.2775,0.2832,0.2856,0.2875,0.2945,0.2981,0.3031,0.3129,0.3192,0.3311,0.3377,0.3474,0.3556,0.3609,0.3673,0.3632,0.3807,0.3749,0.3694,0.3688,0.3434,0.3399,0.3842,0.3842,0.3842,0.3841,0.3841,0,0.2762,0.2778,0.2838,0.2849,0.2891,0.296,0.3034,0.31,0.3223,0.3309,0.3408,0.3495,0.3605,0.3709,0.3727,0.3781,0.3862,0.373,0.3725,0.3449,0.3416,0.3718,0.3701,0.3847,0.3846,0.3845,0.3844,0,0.2711,0.2749,0.2777,0.2848,0.2872,0.2907,0.303,0.3079,0.3217,0.3343,0.339,0.3561,0.3689,0.3784,0.3898,0.386,0.3899,0.3893,0.3569,0.3522,0.3732,0.3718,0.3842,0.384,0.3838,0.3836,0.3835,0,0.2684,0.2692,0.2758,0.278,0.2812,0.2883,0.2923,0.3056,0.3127,0.3365,0.3412,0.3602,0.3682,0.3829,0.3805,0.3837,0.3911,0.3555,0.3397,0.3752,0.3736,0.3724,0.3712,0.3106,0.3099,0.3093,0.3088,0,0.2633,0.2657,0.268,0.2726,0.2763,0.2806,0.2889,0.2939,0.3112,0.3212,0.3348,0.3433,0.3603,0.3489,0.3559,0.3519,0.3513,0.3433,0.3913,0.314,0.3065,0.3047,0.3058,0.3036,0.3041,0.3045,0.3048,0.305,0.2591,0.26,0.2634,0.2662,0.2703,0.2712,0.2695,0.279,0.2858,0.2976,0.3157,0.3189,0.3263,0.3186,0.3098,0.3027,0.326,0.3085,0.31,0.3123,0.2996,0.292,0.2842,0.2846,0.2849,0.2852,0.2855,0,0.2541,0.2552,0.257,0.2579,0.2554,0.2622,0.2646,0.2586,0.2587,0.2745,0.2821,0.263,0.2584,0.2661,0.2466,0.2455,0.2404,0.2347,0.2247,0.2303,0.2351,0.2181,0.1813,0.181,0.1807,0.1804,0,0,0.2521,0.2491,0.2486,0.2407,0.2426,0.2341,0.2316,0.2244,0.2283,0.2247,0.2262,0.2498,0.2596,0.2188,0.2124,0.1933,0.21,0.1852,0.2692,0.2632,0.2676,0.2788,0.2591,0,0,0,0,0]},{"header":{"parameterUnit":"m.s-1","parameterCategory":2,"la1":30.2991,"la2":30.254,"lo1":-89.0895,"lo2":-89.0444,"dy":0.0017,"dx":0.0017,"nx":28,"ny":28,"refTime":"2025-01-27T03:00:00:Z","depth":"2","parameterNumber":3,"parameterNumberName":"V-component_of_CURRENTS"},"data":[0,0,0,0,0,0,0,0,0,0,0,0,0,0,0,0,0,0,0,0,0,0,0,0,0,0,0,0,0,0,0,0,0,0,0,0,0,0,0,0,0,0,0,0,0,0,0,0,0,0,0,0,0,0,0,0,0,0,0.0128,0.0128,0,0.0109,0.0109,0.0109,0.0088,0.0088,0.0087,0.0087,0.0055,0.0055,0.0054,0,0,0,0,0,0,0,0,0,0,0,0,0,0.0114,0.0115,0.0128,0.0128,0.0128,0.0109,0.0109,0.0109,0.0088,0.0088,0.0087,0.0087,0.0055,0.0055,0.0054,0,0,0,0,0,0,0,0,0,0,0,0,0,0.0111,0.0115,0.0128,0.0115,0.0113,0.0109,0.0109,0.0109,0.0088,0.0088,0.0087,0.0087,0.0056,0.0055,0.0054,0.006,0,0,0.0052,0.0051,0,0,0,0,0,0,0,0,0.0111,0.0111,0.0117,0.0116,0.0114,0.01,0.0092,0.0092,0.0088,0.0098,0.0087,0.0086,0.0069,0.0067,0.0066,0.0059,0.0057,0.0052,0.0051,0.0051,0.0051,0,0,0,0,0,0,0,0.0111,0.0112,0.0121,0.0117,0.0115,0.0098,0.0098,0.0092,0.0087,0.0097,0.0096,0.0093,0.0068,0.0067,0.0065,0.0057,0.0052,0.0051,0.0051,0.005,0.0053,0.0054,0,0,0,0,0,0,0.0115,0.0113,0.0122,0.0121,0.011,0.0099,0.0098,0.0105,0.0087,0.0084,0.0093,0.0092,0.0068,0.0066,0.0064,0.0082,0.0051,0.005,0.005,0.0053,0.0054,0.0054,0,0,0,0,0,0,0.0115,0.0116,0.0123,0.0115,0.0114,0.01,0.0108,0.0105,0.0102,0.0084,0.0081,0.0092,0.0068,0.0065,0.0065,0.008,0.005,0.0049,0.0052,0.0053,0.0054,0.0111,0,0,0,0,0,0,0.0115,0.0117,0.0122,0.0116,0.0115,0.0131,0.0108,0.0105,0.0101,0.0099,0.0082,0.0079,0.0067,0.0067,0.0065,0.0079,0.0048,0.0051,0.0053,0.0054,0.0109,0.0114,0.0118,0,0,0,0,0,0.0115,0.0131,0.0123,0.0124,0.0124,0.0132,0.0131,0.0118,0.0101,0.0111,0.0096,0.0079,0.0072,0.0067,0.0064,0.0078,0.0051,0.0052,0.0053,0.0106,0.0113,0.0118,0,0,0,0,0,0,0.0128,0.013,0.0121,0.0137,0.0137,0.0128,0.0133,0.012,0.0116,0.0112,0.0089,0.0086,0.009,0.0076,0.0071,0.0081,0.0057,0.0058,0.0098,0.0104,0.0109,0.0125,0.0048,0,0,0,0,0,0.0133,0.0145,0.0142,0.0154,0.0156,0.0143,0.0142,0.0136,0.013,0.0127,0.0112,0.0099,0.0094,0.0093,0.0085,0.0094,0.0071,0.0099,0.0104,0.0108,0.0119,0.0094,0.0097,0.0058,0.0058,0.0058,0,0,0.014,0.0142,0.0149,0.0157,0.0154,0.0171,0.0142,0.0149,0.0165,0.0124,0.0138,0.0115,0.0099,0.0109,0.0109,0.0099,0.0107,0.011,0.0114,0.0122,0.0095,0.0099,0.0103,0.0059,0.0059,0.0059,0,0,0.0169,0.0165,0.0188,0.0194,0.0196,0.0191,0.0194,0.0189,0.019,0.0199,0.0171,0.0159,0.0152,0.0145,0.014,0.0166,0.0132,0.016,0.0202,0.0178,0.0181,0.0183,0.0159,0.0159,0.0165,0.0166,0.0166,0,0.0177,0.0207,0.0195,0.0221,0.0233,0.0203,0.0235,0.0234,0.0228,0.0235,0.0212,0.0194,0.0173,0.0186,0.0192,0.0179,0.0157,0.0182,0.0184,0.0186,0.0188,0.0163,0.0162,0.0168,0.0168,0.0168,0.0168,0,0.0228,0.0249,0.0264,0.0288,0.0299,0.032,0.0319,0.0325,0.0311,0.0304,0.0307,0.0273,0.0263,0.025,0.023,0.0235,0.0213,0.0191,0.0171,0.0195,0.0167,0.0165,0.0173,0.0172,0.0171,0.017,0,0,0.0257,0.0295,0.03,0.0329,0.0339,0.036,0.0384,0.0404,0.0428,0.0399,0.0425,0.0392,0.0358,0.0349,0.0314,0.029,0.0274,0.0249,0.0246,0.0229,0.0219,0.0184,0.0177,0.0249,0.0249,0.0249,0.0195,0,0.0302,0.0369,0.0372,0.0433,0.047,0.0459,0.0491,0.0501,0.0496,0.051,0.0464,0.0467,0.0402,0.0396,0.0361,0.0303,0.0271,0.029,0.0196,0.0193,0.0161,0.0175,0.02,0.0153,0.0193,0.0193,0.0192,0,0.0354,0.0396,0.0466,0.0523,0.0539,0.0566,0.0613,0.0642,0.0644,0.0641,0.0618,0.0572,0.0537,0.0474,0.0379,0.0394,0.0312,0.0254,0.0251,0.0198,0.0154,0.0134,0.0147,0.0189,0.0189,0.0189,0.0189,0,0.0395,0.0461,0.0523,0.0542,0.0597,0.063,0.0659,0.068,0.073,0.0722,0.0746,0.0673,0.0662,0.0547,0.0415,0.0397,0.0306,0.0266,0.0155,0.0152,0.0145,0.0141,0.0192,0.0192,0.0192,0.0192,0.0192,0,0.0448,0.0498,0.0549,0.0587,0.0671,0.0689,0.0777,0.0789,0.0835,0.0913,0.0818,0.0852,0.0679,0.0599,0.0455,0.0307,0.0332,0.0168,0.0138,0.0165,0.0163,0.0172,0.0171,0.019,0.019,0.0191,0.0191,0,0.0488,0.0516,0.0596,0.0667,0.0695,0.076,0.0868,0.0939,0.0958,0.1057,0.1061,0.0997,0.089,0.0705,0.0529,0.0379,0.0226,0.0162,0.0204,0.0178,0.0075,0.0077,0.0034,0.0032,0.0031,0.0029,0.0028,0,0.0514,0.0558,0.0656,0.072,0.0756,0.0857,0.0939,0.0996,0.1088,0.116,0.122,0.1133,0.1096,0.0808,0.053,0.0266,0.0227,0.01,0.0061,0.0086,0.006,0.0065,0.0068,0.0076,0.0076,0.0075,0.0075,0,0.0569,0.0597,0.067,0.0798,0.0893,0.1017,0.1138,0.1227,0.1319,0.1388,0.1462,0.1428,0.1161,0.0889,0.0509,0.0327,0.0138,0.0081,0.0109,0.0108,0.012,0.0097,0.01,0.0071,0.0071,0.0072,0.0072,0.0072,0.0608,0.067,0.0765,0.0889,0.1007,0.1163,0.1278,0.1413,0.1555,0.1673,0.1633,0.1586,0.1272,0.0784,0.0463,0.0115,0.0128,-0.0005,-0.0001,0.0002,0.0013,0.0021,-0.0044,-0.0045,-0.0045,-0.0045,-0.0045,0,0.0665,0.0739,0.0855,0.1007,0.1145,0.1201,0.1407,0.1521,0.1693,0.1777,0.1817,0.1502,0.1195,0.0837,0.0327,0.0019,0.0003,-0.0086,-0.0034,-0.0028,-0.0023,-0.0012,-0.0077,-0.0078,-0.0079,-0.008,0,0,0.0699,0.0812,0.0873,0.1093,0.1209,0.1404,0.1528,0.1681,0.1784,0.1847,0.1816,0.1743,0.1305,0.0927,0.0512,0.0221,0.0168,0.016,0.0219,0.0336,0.0344,0.0053,0.008,0,0,0,0,0]}],[{"header":{"parameterUnit":"m.s-1","parameterCategory":2,"la1":30.2991,"la2":30.254,"lo1":-89.0895,"lo2":-89.0444,"dy":0.0017,"dx":0.0017,"nx":28,"ny":28,"refTime":"2025-01-27T03:00:00:Z","depth":"4","parameterNumber":2,"parameterNumberName":"U-component_of_CURRENTS"},"data":[0,0,0,0,0,0,0,0,0,0,0,0,0,0,0,0,0,0,0,0,0,0,0,0,0,0,0,0,0,0,0,0,0,0,0,0,0,0,0,0,0,0,0,0,0,0,0,0,0,0,0,0,0,0,0,0,0,0,0.1797,0.1798,0,0.1849,0.1849,0.185,0.19,0.1901,0.1902,0.1903,0.1965,0.1966,0.1967,0,0,0,0,0,0,0,0,0,0,0,0,0,0.1733,0.1733,0.1797,0.1798,0.1799,0.1849,0.1849,0.185,0.19,0.1901,0.1902,0.1903,0.1965,0.1966,0.1967,0,0,0,0,0,0,0,0,0,0,0,0,0,0.1768,0.1734,0.1797,0.1832,0.1835,0.1849,0.1849,0.185,0.19,0.1901,0.1903,0.1904,0.1964,0.1966,0.1967,0.1948,0,0,0.1971,0.1971,0,0,0,0,0,0,0,0,0.1766,0.177,0.1826,0.1829,0.1834,0.1872,0.185,0.1884,0.19,0.1873,0.1903,0.1904,0.1935,0.1939,0.1942,0.1951,0.1954,0.1971,0.1971,0.1972,0.1972,0,0,0,0,0,0,0,0.1763,0.1768,0.1815,0.1826,0.1831,0.1842,0.1848,0.1856,0.1894,0.1875,0.188,0.1889,0.1937,0.1941,0.1944,0.1954,0.1971,0.1972,0.1972,0.1973,0.2076,0.2077,0,0,0,0,0,0,0.1761,0.1765,0.1813,0.1817,0.1805,0.1842,0.1849,0.1856,0.1894,0.1902,0.1888,0.1891,0.1938,0.1943,0.1946,0.2036,0.1972,0.1973,0.1974,0.2074,0.2076,0.2078,0,0,0,0,0,0,0.1759,0.1764,0.1811,0.1794,0.1802,0.1842,0.1849,0.1856,0.1899,0.1904,0.1912,0.1928,0.1939,0.1945,0.1992,0.2034,0.1974,0.1975,0.2071,0.2074,0.2077,0.2144,0,0,0,0,0,0,0.1757,0.1763,0.1786,0.1794,0.1803,0.1847,0.1849,0.1857,0.1901,0.1907,0.194,0.1945,0.1941,0.1991,0.1994,0.2035,0.1976,0.2069,0.2073,0.2076,0.2139,0.2149,0.2157,0,0,0,0,0,0.1754,0.1772,0.1787,0.1794,0.1826,0.1849,0.1855,0.1886,0.1902,0.1927,0.1954,0.1946,0.2017,0.1993,0.1996,0.2039,0.2067,0.2072,0.2076,0.2135,0.2147,0.2157,0,0,0,0,0,0,0.1757,0.1779,0.1796,0.1821,0.1849,0.1859,0.189,0.1906,0.1945,0.1963,0.1965,0.1972,0.2032,0.2025,0.1999,0.2081,0.2043,0.2048,0.2087,0.2098,0.2107,0.211,0.1977,0,0,0,0,0,0.1767,0.1789,0.181,0.1837,0.1854,0.1879,0.19,0.1922,0.1947,0.1968,0.199,0.2017,0.2044,0.2065,0.2085,0.2123,0.2124,0.2155,0.2164,0.2172,0.2178,0.2217,0.2229,0.2093,0.2093,0.2093,0,0,0.1777,0.1793,0.1808,0.1841,0.1865,0.1891,0.1896,0.1939,0.1971,0.1966,0.2029,0.2051,0.2063,0.2112,0.2138,0.2117,0.2214,0.2177,0.2183,0.2186,0.2223,0.2236,0.2248,0.2096,0.2095,0.2095,0,0,0.179,0.1823,0.1843,0.1868,0.1914,0.1928,0.195,0.1985,0.202,0.2071,0.2083,0.2132,0.2169,0.2188,0.2199,0.2268,0.2261,0.2283,0.2329,0.2368,0.2379,0.2389,0.2414,0.2425,0.2286,0.2286,0.2286,0,0.1808,0.1828,0.1856,0.188,0.1907,0.1948,0.1977,0.2012,0.2063,0.2095,0.2107,0.2187,0.2203,0.2257,0.2289,0.2289,0.2306,0.2285,0.2379,0.2389,0.2397,0.242,0.2432,0.229,0.2289,0.2289,0.2289,0,0.182,0.1856,0.1873,0.1915,0.195,0.1986,0.2031,0.2082,0.213,0.2161,0.2244,0.2273,0.2319,0.2339,0.2338,0.2414,0.2405,0.2386,0.2348,0.2415,0.2435,0.2446,0.2295,0.2294,0.2293,0.2292,0,0,0.1806,0.1869,0.1881,0.1905,0.1975,0.1995,0.2067,0.2129,0.2179,0.2248,0.231,0.2377,0.2407,0.2422,0.2437,0.2476,0.2559,0.2468,0.2468,0.2487,0.2647,0.2475,0.247,0.2562,0.2565,0.2566,0.2637,0,0.1814,0.1857,0.1893,0.1946,0.1971,0.2035,0.209,0.2159,0.2228,0.2299,0.236,0.2427,0.2434,0.2473,0.2517,0.2553,0.2592,0.2542,0.2584,0.2585,0.2419,0.2478,0.2574,0.2645,0.2647,0.2649,0.265,0,0.1804,0.1838,0.189,0.1956,0.1976,0.2021,0.2119,0.2176,0.2285,0.2345,0.2431,0.2476,0.2567,0.2553,0.2655,0.2629,0.265,0.2666,0.2669,0.249,0.2433,0.2563,0.267,0.2668,0.2667,0.2666,0.2664,0,0.1757,0.1829,0.1872,0.1897,0.1982,0.2031,0.209,0.2198,0.2258,0.2388,0.2448,0.2547,0.2621,0.2667,0.2723,0.2703,0.2815,0.2781,0.2642,0.263,0.2734,0.2723,0.2842,0.2842,0.2842,0.2842,0.2841,0,0.1723,0.1758,0.1859,0.1878,0.1934,0.2013,0.2095,0.2169,0.2291,0.2354,0.2475,0.2538,0.266,0.2733,0.2752,0.2734,0.2843,0.2658,0.2638,0.2761,0.2752,0.2742,0.273,0.2844,0.2844,0.2843,0.2843,0,0.165,0.1721,0.1766,0.1871,0.191,0.1953,0.2085,0.2133,0.2274,0.2363,0.2411,0.2573,0.2664,0.2747,0.2835,0.2761,0.2761,0.2725,0.2866,0.2852,0.2542,0.2533,0.2562,0.2557,0.2552,0.2548,0.2545,0,0.1609,0.1632,0.1745,0.1773,0.1825,0.1912,0.1964,0.211,0.2159,0.2355,0.2372,0.2532,0.2613,0.2609,0.271,0.2724,0.2693,0.2668,0.2586,0.2536,0.2515,0.2513,0.251,0.2537,0.2536,0.2535,0.2534,0,0.1528,0.1589,0.1624,0.1688,0.1746,0.1795,0.1883,0.1908,0.2065,0.2216,0.228,0.2335,0.2436,0.2504,0.2543,0.2545,0.2665,0.2619,0.2627,0.255,0.2507,0.249,0.2493,0.2518,0.252,0.2522,0.2522,0,0.1469,0.147,0.1534,0.157,0.1637,0.1646,0.1712,0.177,0.1846,0.2052,0.2076,0.2247,0.241,0.2413,0.2446,0.2439,0.2392,0.2295,0.2319,0.2338,0.2231,0.2141,0.2028,0,0,0,0,0,0.1399,0.1385,0.1409,0.143,0.1491,0.1535,0.1635,0.1707,0.1867,0.185,0.1955,0.2033,0.2103,0.2206,0.2153,0.2339,0.2395,0.2264,0.2294,0.2429,0.2447,0.2341,0,0,0,0,0,0,0.1345,0.1367,0.1363,0.1314,0.1309,0.1356,0.1418,0.1525,0.1527,0.1706,0.1764,0.19,0.201,0.2115,0.2115,0.2139,0.2111,0.2374,0.2368,0.2418,0.2435,0.245,0.2347,0,0,0,0,0]},{"header":{"parameterUnit":"m.s-1","parameterCategory":2,"la1":30.2991,"la2":30.254,"lo1":-89.0895,"lo2":-89.0444,"dy":0.0017,"dx":0.0017,"nx":28,"ny":28,"refTime":"2025-01-27T03:00:00:Z","depth":"4","parameterNumber":3,"parameterNumberName":"V-component_of_CURRENTS"},"data":[0,0,0,0,0,0,0,0,0,0,0,0,0,0,0,0,0,0,0,0,0,0,0,0,0,0,0,0,0,0,0,0,0,0,0,0,0,0,0,0,0,0,0,0,0,0,0,0,0,0,0,0,0,0,0,0,0,0,0.0103,0.0103,0,0.0093,0.0093,0.0093,0.0082,0.0081,0.0081,0.0081,0.0062,0.0062,0.0062,0,0,0,0,0,0,0,0,0,0,0,0,0,0.0091,0.0091,0.0103,0.0103,0.0103,0.0093,0.0093,0.0093,0.0082,0.0081,0.0081,0.0081,0.0062,0.0062,0.0062,0,0,0,0,0,0,0,0,0,0,0,0,0,0.0091,0.0091,0.0103,0.0095,0.0094,0.0093,0.0093,0.0093,0.0082,0.0081,0.0081,0.0081,0.0062,0.0062,0.0062,0.0066,0,0,0.006,0.006,0,0,0,0,0,0,0,0,0.0091,0.0091,0.0097,0.0096,0.0095,0.0087,0.0082,0.0083,0.0082,0.0087,0.0081,0.0081,0.007,0.0069,0.0069,0.0065,0.0065,0.006,0.006,0.006,0.006,0,0,0,0,0,0,0,0.0091,0.0092,0.01,0.0096,0.0095,0.0085,0.0085,0.0082,0.0081,0.0087,0.0086,0.0084,0.0069,0.0069,0.0068,0.0064,0.006,0.006,0.006,0.006,0.0067,0.0067,0,0,0,0,0,0,0.0092,0.0092,0.01,0.0099,0.0091,0.0085,0.0085,0.0091,0.0081,0.0079,0.0084,0.0083,0.007,0.0069,0.0068,0.0083,0.006,0.006,0.0059,0.0066,0.0067,0.0067,0,0,0,0,0,0,0.0092,0.0093,0.0101,0.0094,0.0094,0.0086,0.0092,0.0091,0.0091,0.0079,0.0077,0.0085,0.007,0.0068,0.0073,0.0081,0.0059,0.0059,0.0066,0.0066,0.0067,0.0106,0,0,0,0,0,0,0.0092,0.0094,0.0098,0.0095,0.0095,0.0108,0.0093,0.0091,0.009,0.0089,0.008,0.0077,0.0069,0.0073,0.0072,0.008,0.0059,0.0065,0.0066,0.0067,0.0104,0.0108,0.0111,0,0,0,0,0,0.0092,0.0104,0.0099,0.01,0.0102,0.0109,0.0109,0.0101,0.009,0.0098,0.0091,0.0078,0.0077,0.0074,0.0072,0.008,0.0065,0.0066,0.0067,0.0103,0.0107,0.0111,0,0,0,0,0,0,0.0101,0.0104,0.0098,0.0111,0.0112,0.0107,0.0112,0.0104,0.0104,0.0102,0.0087,0.0085,0.0089,0.0081,0.0077,0.0084,0.0067,0.0068,0.0095,0.01,0.0103,0.0114,0.0058,0,0,0,0,0,0.0106,0.0116,0.0114,0.0124,0.0126,0.0118,0.0118,0.0115,0.0113,0.0113,0.0104,0.0096,0.0092,0.0093,0.0088,0.0096,0.0073,0.0099,0.0103,0.0106,0.0113,0.0083,0.0085,0.007,0.007,0.007,0,0,0.0111,0.0113,0.0119,0.0126,0.0125,0.0139,0.0118,0.0126,0.0139,0.0111,0.0124,0.0108,0.0096,0.0105,0.0106,0.0099,0.0096,0.0107,0.011,0.0115,0.0084,0.0086,0.0087,0.0071,0.0071,0.0071,0,0,0.0132,0.0131,0.0149,0.0154,0.0158,0.0155,0.0158,0.0157,0.0159,0.0169,0.0148,0.0139,0.0138,0.013,0.0127,0.0147,0.0113,0.0142,0.0172,0.0143,0.0144,0.0145,0.0112,0.0109,0.0147,0.0147,0.0147,0,0.0138,0.0161,0.0154,0.0173,0.0184,0.0165,0.0189,0.019,0.0189,0.0194,0.018,0.0166,0.0152,0.0158,0.0164,0.0155,0.013,0.0158,0.0148,0.0148,0.0148,0.0114,0.011,0.0149,0.0149,0.0148,0.0148,0,0.0175,0.0192,0.0204,0.0223,0.0233,0.025,0.0251,0.0258,0.0251,0.0246,0.0247,0.0223,0.0216,0.0205,0.0192,0.0187,0.0166,0.0152,0.0137,0.0151,0.0115,0.011,0.0152,0.0151,0.015,0.015,0,0,0.0193,0.0224,0.0229,0.0251,0.0263,0.028,0.03,0.0316,0.0334,0.0314,0.033,0.0307,0.0282,0.0275,0.0249,0.0222,0.0193,0.0191,0.0188,0.0159,0.0124,0.01,0.0093,0.0174,0.0174,0.0174,0.0097,0,0.0224,0.0275,0.028,0.0328,0.0356,0.0353,0.0379,0.0388,0.0386,0.0394,0.0356,0.0358,0.0313,0.0311,0.0275,0.0218,0.0184,0.0215,0.0114,0.0111,0.0089,0.0088,0.0172,0.0093,0.0092,0.0091,0.0091,0,0.0258,0.0292,0.0347,0.0395,0.0407,0.0432,0.0472,0.0496,0.0494,0.0492,0.0471,0.0436,0.0399,0.0357,0.0258,0.0279,0.0208,0.0153,0.0149,0.0112,0.008,0.0077,0.0082,0.0083,0.0084,0.0084,0.0085,0,0.0284,0.0338,0.0387,0.0403,0.0451,0.0479,0.0508,0.0525,0.0564,0.0555,0.0566,0.0504,0.0487,0.0386,0.0267,0.0264,0.0147,0.0129,0.0037,0.0034,0.0061,0.0061,0.0055,0.0055,0.0055,0.0056,0.0056,0,0.0316,0.0357,0.0406,0.0436,0.0506,0.0525,0.06,0.061,0.0644,0.0688,0.0622,0.0628,0.0494,0.0407,0.0286,0.0147,0.0159,0.0042,0.0014,0.0079,0.0082,0.0057,0.0058,0.0053,0.0053,0.0054,0.0054,0,0.0337,0.0365,0.043,0.0493,0.0521,0.0576,0.0673,0.0729,0.074,0.0792,0.0793,0.0729,0.0613,0.0458,0.0295,0.0187,0.0047,-0.0008,0.0071,0.0048,-0.0052,-0.0048,-0.0112,-0.0113,-0.0114,-0.0115,-0.0116,0,0.0351,0.0385,0.0475,0.0528,0.0563,0.0653,0.0724,0.0775,0.0835,0.0852,0.0876,0.0784,0.0713,0.047,0.0298,0.0055,0.0018,-0.006,-0.0058,-0.0048,-0.0069,-0.0062,-0.0057,-0.0118,-0.0118,-0.0119,-0.0119,0,0.0382,0.0412,0.0471,0.0578,0.0661,0.0765,0.086,0.0908,0.0963,0.0969,0.0946,0.0815,0.068,0.048,0.0286,0.0112,-0.0012,-0.0073,-0.0072,-0.007,-0.0056,-0.0074,-0.0067,-0.0123,-0.0123,-0.0122,-0.0122,0,0.0406,0.0451,0.0529,0.0627,0.0735,0.0841,0.0894,0.0962,0.1017,0.1019,0.101,0.0853,0.077,0.051,0.0333,0.0153,0.0107,0.0047,0.0041,0.0043,0.0103,0.0144,0.0117,0,0,0,0,0,0.0429,0.0485,0.0575,0.0685,0.0794,0.0859,0.0971,0.1017,0.1056,0.1049,0.1032,0.0899,0.064,0.0539,0.0356,0.0297,0.0067,0.0075,-0.0008,-0.0147,-0.0142,-0.0102,0,0,0,0,0,0,0.0446,0.0528,0.0575,0.0716,0.0797,0.0926,0.1,0.1032,0.1031,0.1033,0.0906,0.0838,0.0595,0.0739,0.0345,0.0292,0.0211,-0.0044,-0.0048,-0.0149,-0.0145,-0.0141,-0.0098,0,0,0,0,0]}]]